Other Public Products
Issued by NWS Grand Forks, ND

Home | Current Version | Previous Version | Text Only | Print | Product List | Glossary Off
Versions: 1 2 3 4 5 6 7 8 9 10 11 12 13 14 15 16 17 18 19 20 21 22 23 24 25 26 27 28 29 30 31 32 33 34 35 36 37 38 39 40 41 42 43 44 45 46 47 48 49 50

000
FPUS83 KFGF 271310
OPUFGF
PRAIRIE TO PINES WEATHER ROUNDUP
NATIONAL WEATHER SERVICE EASTERN NORTH DAKOTA/GRAND FORKS ND
800 AM CDT WED AUG 27 2014

 **SATELLITE DATA USED TO AUGMENT SKY COVER AT AUTOMATED STATIONS**
 *****  WEATHER ACROSS EASTERN NORTH DAKOTA  *****

CITY           SKY/WX    TMP DP  RH WIND       PRES   REMARKS
GRAND FORKS    MOSUNNY   51  50  96 S5        30.18R
GRAND FORKS AF SUNNY     52  52 100 S2        30.18R
GRAND CITY NWS   N/A     52 N/A N/A SW3         N/A
BUXTON         NOT AVBL
DEVILS LAKE    SUNNY     52  46  82 CALM      30.16S
FARGO          CLOUDY    56  55  97 CALM      30.19R
WAHPETON ARPT  PTSUNNY   59  55  88 SE3       30.19S
$$

 *****  WEATHER ACROSS CENTRAL AND WESTERN NORTH DAKOTA  *****

CITY           SKY/WX    TMP DP  RH WIND       PRES   REMARKS
JAMESTOWN      FOG       51  50  96 CALM      30.18R VSB 1/4
BISMARCK       FOG       50  50 100 NE5       30.17S VSB 1/4
MINOT          CLEAR     54  50  86 SW8       30.13R
MINOT AFB      CLEAR     50  50 100 S3        30.13R
GARRISON         N/A     47  47 100 CALM      30.15S
WILLISTON      CLEAR     52  51  97 CALM      30.11S
DICKINSON      FOG       51  50  96 S7        30.13S VSB 1
HETTINGER      FOG       47  46  97 CALM      30.17S VSB 1/4
$$

 *****  OTHER OBSERVATIONS NORTHEAST NORTH DAKOTA  *****

CITY           SKY/WX    TMP DP  RH WIND       PRES   REMARKS
WALHALLA         N/A     52  52 100 CALM      30.15S
LANGDON        FOG       46  46 100 SW5       30.17R VSB 1/2
CAVALIER       FAIR      48  48 100 CALM      30.16R
GRAFTON        FAIR      50  50 100 SW5       30.17R
CANDO          FOG       46  46 100 CALM      30.17S VSB<1/4
FORT TOTTEN      N/A     47  47  99 SE3       29.95
ROLLA          FAIR      50  50 100 SW5       30.17R
RUGBY          FAIR      48  48 100 SE3       30.15F FOG
 ***** THE ABOVE OBSERVATIONS ARE NON NWS ARE NOT QUALITY
        CONTROLLED AND MAY MIS-REPORT RAIN FOR SNOW...
$$

 *****  OTHER OBSERVATIONS SOUTHEAST NORTH DAKOTA *****

CITY           SKY/WX    TMP DP  RH WIND       PRES   REMARKS
COOPERSTOWN    NOT AVBL
VALLEY CITY    CLOUDY    54  54 100 CALM      30.19R
OAKES            N/A     57  57 100 E3        30.18S FOG
GWINNER        CLOUDY    61  61 100 SE5       30.19S
BUFFALO        NOT AVBL
WYNDMERE       NOT AVBL
 ***** THE ABOVE OBSERVATIONS ARE NON NWS ARE NOT QUALITY
       CONTROLLED AND MAY MIS-REPORT RAIN FOR SNOW...
$$

  *****  WEATHER ACROSS NORTHERN MINNESOTA  *****

CITY           SKY/WX    TMP DP  RH WIND       PRES   REMARKS
FLAG ISLAND    SUNNY     57  54  88 CALM      30.15S
WARROAD        FOG       48  45  87 SW3       30.18R VSB 1/4
ROSEAU         HAZE      48  43  81 CALM      30.17S VSB<1/4
HALLOCK        SUNNY     46  46 100 S6        30.16S FOG
THF RVR FALLS  SUNNY     52  52 100 S5        30.19R
HALSTAD          N/A     50  48  95 CALM        N/A
FOSSTON        FOG       48  48 100 S3        30.20S VSB 1/2
BAUDETTE       SUNNY     50  48  93 S5        30.18S
WASKISH        SUNNY     52  52 100 CALM      30.19R
CROOKSTON      FOG       52  50  93 S5        30.20R VSB<1/4
$$
  *****  WEATHER ACROSS CENTRAL AND WEST MINNESOTA  *****

CITY           SKY/WX    TMP DP  RH WIND       PRES   REMARKS
BEMIDJI        SUNNY     49  49  99 CALM      30.20R
PARK RAPIDS    FOG       53  53 100 CALM      30.20S VSB 1/4
WADENA         SUNNY     57  55  94 CALM      30.20R
DETROIT LAKES  SUNNY     55  55 100 CALM      30.20F
MOORHEAD       CLOUDY    55  55 100 CALM      30.20R
FERGUS FALLS   CLOUDY    61  57  88 CALM      30.19S
ELBOW LAKE     FAIR      58  56  94 SE3       30.19S
MORRIS MN      PTSUNNY   61  57  88 E3        30.19S
STAPLES        MOSUNNY   57  55  94 CALM      30.21R
WHEATON        PTSUNNY   54  54 100 SE3       30.21S FOG
$$
  *****  WEATHER ELSEWHERE ACROSS MINNESOTA  *****

CITY           SKY/WX    TMP DP  RH WIND       PRES   REMARKS
DULUTH         MOSUNNY   56  49  77 CALM      30.20F
INTRNTL FALLS  MOSUNNY   46  44  93 CALM      30.19S
ELY            SUNNY     46  46 100 CALM      30.20S
CLOQUET        SUNNY     54  52  94 CALM      30.21S
BRAINERD       SUNNY     57  55  93 CALM      30.21S
HIBBING        SUNNY     48  45  89 CALM      30.21S
ALEXANDRIA     PTSUNNY   57  56  96 SE6       30.22R
SAINT CLOUD    PTSUNNY   59  55  87 SE3       30.21R
MINNEAPOLIS    PTSUNNY   62  56  80 NE7       30.20S
$$

  *****  WEATHER ACROSS SOUTH DAKOTA  *****

CITY           SKY/WX    TMP DP  RH WIND       PRES   REMARKS
SIOUX FALLS    PTSUNNY   60  56  86 E6        30.16S
BROOKINGS      NOT AVBL
WATERTOWN      CLOUDY    58  54  86 E3        30.18R
HURON          MOSUNNY   61  57  87 E7        30.14S
SISSETON         N/A     57  57 100 CALM      30.18S
ABERDEEN       MOSUNNY   56  55  97 CALM      30.17S
MITCHELL       CLOUDY    60  59  96 E6        30.15R
PIERRE         CLOUDY    60  60 100 E8        30.11R FOG
MOBRIDGE       SUNNY     54  53  97 E3        30.13S
RAPID CITY     MOCLDY    55  53  93 E5        30.16R
$$

  *****  SOME WEATHER IN NEARBY STATES *****

CITY           SKY/WX    TMP DP  RH WIND       PRES   REMARKS
GLASGOW MT     CLEAR     54  50  86 E13       30.04S
GREAT FALLS MT CLEAR     52  44  74 S9        30.07R
CHEYENNE WY    LGT RAIN  58  53  84 W5        30.22R
SCOTTSBLUFF NE CLOUDY    64  63  96 E8        30.13R
OMAHA NE       CLOUDY    70  64  81 SE6       30.13R THUNDER
DES MOINES IA  LGT RAIN  69  61  75 E8        30.14S
DAVENPORT IA   PTSUNNY   67  62  84 E8        30.16R
CHICAGO IL     MOSUNNY   71  61  70 NE6       30.14S
EAU CLAIRE WI  SUNNY     61  57  87 NE3       30.20R
LA CROSSE WI   CLOUDY    65  58  78 SE3       30.18R
$$

  *****  SOME NATIONAL WEATHER *****

CITY           SKY/WX    TMP DP  RH WIND       PRES   REMARKS
LA GUARDIA NY  MOSUNNY   77  63  61 S7        30.03F
RALEIGH NC     MOSUNNY   68  62  81 VRB5      30.09S
ATLANTA GA     MOSUNNY   71  60  68 E9        30.13R
NEW ORLEANS LA MOSUNNY   84  75  74 NE13      30.00R HX  92
OKLAHOMA CITY  MOSUNNY   74  69  85 SE5       30.11R
ALBUQUERQUE NM PTCLDY    60  57  89 SW3       30.30R
SALT LAKE CITY CLOUDY    60  56  86 S7        30.20R
LOS ANGELES CA CLEAR     68  62  81 CALM      30.02R
BOISE ID       CLEAR     62  46  55 SE8       30.11R
SEATTLE WA     CLEAR     64  56  75 CALM      30.03S
$$

*** WEATHER ACROSS MANITOBA...SASKATCHEWAN AND ONTARIO ***
                ***ONTARIO***

CITY           SKY/WX    TMP DP  RH WIND       PRES   REMARKS
GERALDTON      PTSUNNY   54  50  87 E5        30.11R
THUNDER BAY    PTSUNNY   57  52  82 SW6       30.16F
SIOUX LOOKOUT  MOSUNNY   54  50  87 NW3       30.17R
TORONTO        MOSUNNY   66  55  68 N10       30.07S
BIG TROUT LK   CLOUDY    48  46  93 N5        30.10R
PICKLE LAKE    CLOUDY    50  45  81 NW7       30.13S
DRYDEN         SUNNY     50  48  93 W3        30.18S
KENORA         PTSUNNY   52  48  87 SW5       30.18R
$$
                *** MANITOBA***

CITY           SKY/WX    TMP DP  RH WIND       PRES   REMARKS
BRANDON        MOSUNNY   48  48 100 SW2       30.13S
DAUPHIN        SUNNY     59  50  72 SW14G20   30.04S
ISLAND LAKE    MOSUNNY   48  46  93 CALM      30.06F
PILOT MOUND      N/A     48  46  93 S3          N/A
THE PAS        PTSUNNY   57  52  82 S13       29.85F
THOMPSON       PTSUNNY   52  50  93 SE7       29.87F
WINNIPEG       MOSUNNY   50  46  87 S7        30.14F
LYNN LAKE      CLOUDY    54  50  87 MISG      29.76F
CHURCHILL      PTSUNNY   48  43  81 S16G22    29.85F
GILLAM         MOSUNNY   45  45 100 S9        29.96F
$$
                ***SASKATCHEWAN***

CITY           SKY/WX    TMP DP  RH WIND       PRES   REMARKS
ESTEVAN        PTCLDY    54  52  94 S6        30.10S
KINDERSLEY     PTCLDY    52  48  87 S8        29.91R
LLOYDMINSTER   MOCLDY    55  48  76 SW10      29.85S
PRINCE ALBERT  NOT AVBL
REGINA         CLEAR     50  46  87 SE10      30.03S
YORKTON        CLEAR     54  48  82 S10       30.02F



USA.gov is the U.S. government's official web portal to all federal, state and local government web resources and services.